DECAYED
Showing default

FLOCK 4BE 8, 60515 (Decayed)

Orbit data source: Space-Track

FLOCK 4BE 8, 60515 was a payload satellite owned by Planet (US) in LEO that was launched on Fri, 16 Aug 2024 UTC via an FALCON 9 launch vehicle from the Air Force Western Test Range (AFWTR). Payload-class satellites include a variety of spacecraft equipped with specific instruments for various scientific and technological missions. These include communications satellites like Starlink; space stations such as the ISS; scientific satellites like the Hubble; Earth observation satellites from companies like Planet Labs, Umbra, and HawkEye 360; GPS; miniature CubeSats for education and research; and military/defense satellites.

Not visible in the next 10 days
Identifier
60515, 2024-149AZ
Orbit
Decayed
Country
Flag of USUS
Related business
Manufacturer
Planet
Mission
Decayed Commercial Imaging
Bus & Motor
CUBESAT 3U, Unknown motor
Mass
5.7 kg wet, 5.7 kg dry
Launch date (UTC)
2024-08-16 (2 years ago)
Launch vehicle
FALCON 9
Launch site
Air Force Western Test Range (AFWTR)
Object type
Payload
Rocket body
Debris
Shape & HBR
Box + 2 Pan, 1.0 m
Radar Cross Section
0.072 m², Medium (>0.1 m² and < 1m²)

Expand to show TLE details & history
Last TLE update: 3 months ago

TLE from 3 months ago
0 FLOCK 4BE 8
1 60515U 24149AZ  26092.29641906  .05230268  24222-5  20639-2 0  9998
2 60515  97.3400 181.1593 0011835 257.7725 102.2241 16.23616094 91014
Epoch: 2026-04-02T07:06Z
TLE epoch observation values (Epoch: 2026-04-02T07:06:50.606Z)
Latitude
-0.00001°
Longitude
-116.19849°
Altitude
214.643 km
Speed
7.777 km/s
True Right ascension
12h 04m 38s
True Declination
0° 00' 00"
Sunlit
Object was in full shadow at epoch
Visualization orbit readout
Latitude
Unknown
Longitude
Unknown
Altitude
Unknown
Speed
Unknown
Apparent Right ascension
Unknown
Apparent Declination
Unknown
Sunlit
N/A
Visualization observer readout
Local Sidereal Time
15:21:01
Azimuth
Unknown
Elevation
Unknown
Doppler factor
Unknown
Orbital elements
Apogee altitude
214.371 km
Perigee altitude
198.785 km
Semi-major axis
6,584.715 km
Eccentricity
0.00118
Inclination
97.34°
RAAN
181.1593°
Arg. of periapsis
257.7725°
True anomaly
102.3566°
Mean anomaly
102.2241°
Eccentric anomaly
102.29036°
Mean motion
4.06198 °/min
Orbital period
88.63 mins
BSTAR
0.0020639
Loading maneuver chart data...
Computing Atmospheric mass density...
Loading historical data...
Loading historical data...
Loading historical data...
Loading historical data...
Loading historical data...
Loading historical data...
Loading historical data...

Documentation

Showing up to 5 results
|